Omak, WA

1:43 PM PDT on September 18, 2019 (GMT -0700)
Omak

Weather History for KOMK - August, 2019

Change the Weather History Date:

Friday, August 23, 2019

  Actual Average Record
Temperature  
Mean Temperature 68 °F 71 °F  
Max Temperature 83 °F 86 °F 101 °F (1926)
Min Temperature 52 °F 56 °F 31 °F (1925)
Degree Days  
Heating Degree Days 0 1  
Month to date heating degree days 0 3  
Since 1 June heating degree days 56 87  
Since 1 July heating degree days 0 18  
Cooling Degree Days 3 7  
Month to date cooling degree days 234 202  
Year to date cooling degree days 638 563  
Since 1 June cooling degree days 610 540  
Growing Degree Days 17 (Base 50)    
Moisture  
Dew Point 49 °F    
Average Humidity 55    
Maximum Humidity 78    
Minimum Humidity 32    
Precipitation  
Precipitation T in 0.01 in 0.51 in (1975)
Month to date precipitation 0.33 0.37  
Year to date precipitation 5.38 9.16  
Sea Level Pressure  
Sea Level Pressure 29.88 in    
Wind  
Wind Speed 8 mph (NNW)    
Max Wind Speed 23 mph    
Max Gust Speed 28 mph    
Visibility 10 miles    
Events      
T = Trace of Precipitation, MM = Missing Value Source: NWS Daily Summary

Daily Weather History Graph

Daily Weather History Graph

Search for Another Location

Airport or City:

Astronomy

Aug. 23, 2019 Rise Set
Actual Time 6:02 AM PDT 7:57 PM PDT
Civil Twilight 5:29 AM PDT 8:31 PM PDT
Nautical Twilight 4:47 AM PDT 9:12 PM PDT
Astronomical Twilight 4:01 AM PDT 9:57 PM PDT
Moon 11:50 PM PDT (8/23) 2:22 PM PDT (8/23)
Length of Visible Light 15h 01m
Length of Day
13h 54m
Waning Gibbous, 48% of the Moon is Illuminated
Aug 23
Waning Gibbous
Aug 30
New
Sep 5
First Quarter
Sep 13
Full
Sep 21
Last Quarter

Hourly Weather History & Observations

Time (PDT) Temp. Dew Point Humidity Pressure Visibility Wind Dir Wind Speed Gust Speed Precip Events Conditions
12:53 AM 61.0 °F 43.0 °F 52% 29.91 in 10.0 mi NW 5.8 mph - N/A   Clear
1:53 AM 57.9 °F 43.0 °F 58% 29.91 in 10.0 mi WNW 6.9 mph - N/A   Clear
2:53 AM 55.9 °F 44.1 °F 64% 29.91 in 10.0 mi Calm Calm - N/A   Clear
3:53 AM 55.0 °F 43.0 °F 64% 29.91 in 10.0 mi Calm Calm - N/A   Clear
4:53 AM 54.0 °F 44.1 °F 69% 29.92 in 10.0 mi West 3.5 mph - N/A   Clear
5:53 AM 53.1 °F 43.0 °F 69% 29.92 in 10.0 mi NW 3.5 mph - N/A   Clear
6:53 AM 53.1 °F 44.1 °F 71% 29.94 in 10.0 mi Calm Calm - N/A   Clear
7:53 AM 62.1 °F 43.0 °F 50% 29.94 in 10.0 mi Calm Calm - N/A   Clear
8:53 AM 64.9 °F 45.0 °F 48% 29.94 in 10.0 mi SSW 4.6 mph - N/A   Clear
9:53 AM 68.0 °F 46.0 °F 45% 29.93 in 10.0 mi SE 4.6 mph - N/A   Clear
10:53 AM 73.0 °F 46.0 °F 38% 29.93 in 10.0 mi South 5.8 mph - N/A   Clear
11:53 AM 81.0 °F 48.0 °F 31% 29.86 in 10.0 mi South 12.7 mph - N/A   Clear
12:53 PM 79.0 °F 46.0 °F 31% 29.87 in 10.0 mi SSE 8.1 mph - N/A   Overcast
1:53 PM 79.0 °F 46.0 °F 31% 29.86 in 10.0 mi WNW 5.8 mph - N/A   Mostly Cloudy
2:53 PM 73.0 °F 48.9 °F 42% 29.86 in 10.0 mi North 17.3 mph - N/A   Overcast
3:53 PM 66.0 °F 54.0 °F 65% 29.85 in 10.0 mi North 21.9 mph 27.6 mph 0.00 in   Overcast
4:53 PM 66.9 °F 55.9 °F 68% 29.84 in 10.0 mi North 17.3 mph - 0.00 in   Mostly Cloudy
5:53 PM 66.0 °F 55.9 °F 70% 29.83 in 10.0 mi North 16.1 mph - N/A   Overcast
6:53 PM 66.0 °F 55.9 °F 70% 29.83 in 10.0 mi NNW 11.5 mph - N/A   Overcast
7:53 PM 64.9 °F 55.9 °F 73% 29.83 in 10.0 mi North 12.7 mph - N/A   Overcast
8:53 PM 66.0 °F 54.0 °F 65% 29.82 in 10.0 mi NNW 9.2 mph - N/A   Overcast
9:53 PM 63.0 °F 54.0 °F 72% 29.83 in 10.0 mi North 9.2 mph - N/A   Mostly Cloudy
10:53 PM 61.0 °F 54.0 °F 78% 29.82 in 10.0 mi North 8.1 mph - N/A   Clear
11:53 PM 61.0 °F 54.0 °F 78% 29.81 in 10.0 mi North 10.4 mph - N/A   Clear